When you browse on this site, cookies collect data to enhance your experience and personalize the content and advertising you see.
Visit our Privacy Policy to learn more. By continuing to use the site, you agree to this use of cookies and data.
  • In United Kingdom
  • List of Countries
  • For 7 days
  • Water Temperature
  • Satellite Maps
  • Weather Map
  • Weather Widgets
  • user-avatar
    Login

    Hourly Weather Malanville

    Today, 12 December, Wednesday

    Time Temperature Precipitation Wind Pressure Humidity
    00:00 +25°C° 0 mm 3 mps 746 mmHg 21%
    01:00 +24°C° 0 mm 3 mps 746 mmHg 22%
    02:00 +22°C° 0 mm 3 mps 746 mmHg 22%
    03:00 +22°C° 0 mm 3 mps 746 mmHg 23%
    04:00 +21°C° 0 mm 3 mps 746 mmHg 23%
    05:00 +21°C° 0 mm 3 mps 746 mmHg 23%
    06:00 +21°C° 0 mm 3 mps 746 mmHg 23%
    07:00 +24°C° 0 mm 3 mps 746 mmHg 20%
    08:00 +27°C° 0 mm 4 mps 747 mmHg 16%
    09:00 +29°C° 0 mm 4 mps 747 mmHg 13%
    10:00 +32°C° 0 mm 4 mps 747 mmHg 13%
    11:00 +34°C° 0 mm 4 mps 746 mmHg 12%
    12:00 +37°C° 0 mm 4 mps 746 mmHg 11%
    13:00 +37°C° 0 mm 3 mps 745 mmHg 10%
    14:00 +37°C° 0 mm 3 mps 745 mmHg 10%
    15:00 +38°C° 0 mm 3 mps 744 mmHg 10%
    16:00 +36°C° 0 mm 3 mps 744 mmHg 11%
    17:00 +34°C° 0 mm 3 mps 744 mmHg 12%
    18:00 +31°C° 0 mm 3 mps 745 mmHg 14%
    19:00 +30°C° 0 mm 3 mps 745 mmHg 14%
    20:00 +29°C° 0 mm 3 mps 746 mmHg 14%
    21:00 +28°C° 0 mm 3 mps 746 mmHg 14%
    22:00 +27°C° 0 mm 3 mps 746 mmHg 15%
    23:00 +27°C° 0 mm 3 mps 746 mmHg 15%

    Tomorrow, 13 December, Thursday

    Time Temperature Precipitation Wind Pressure Humidity
    00:00 +26°C° 0 mm 3 mps 746 mmHg 15%
    01:00 +25°C° 0 mm 3 mps 746 mmHg 16%
    02:00 +25°C° 0 mm 3 mps 746 mmHg 16%
    03:00 +24°C° 0 mm 3 mps 745 mmHg 17%
    04:00 +24°C° 0 mm 3 mps 746 mmHg 18%
    05:00 +22°C° 0 mm 3 mps 746 mmHg 18%
    06:00 +22°C° 0 mm 3 mps 746 mmHg 19%
    07:00 +26°C° 0 mm 3 mps 747 mmHg 17%
    08:00 +28°C° 0 mm 4 mps 747 mmHg 14%
    09:00 +32°C° 0 mm 5 mps 748 mmHg 12%
    10:00 +34°C° 0 mm 4 mps 747 mmHg 11%
    11:00 +36°C° 0 mm 4 mps 747 mmHg 10%
    12:00 +38°C° 0 mm 4 mps 746 mmHg 8%
    13:00 +40°C° 0 mm 4 mps 745 mmHg 8%
    14:00 +40°C° 0 mm 4 mps 745 mmHg 8%
    15:00 +39°C° 0 mm 3 mps 744 mmHg 8%
    16:00 +37°C° 0 mm 3 mps 744 mmHg 10%
    17:00 +35°C° 0 mm 3 mps 744 mmHg 11%
    18:00 +33°C° 0 mm 3 mps 745 mmHg 12%
    19:00 +31°C° 0 mm 3 mps 745 mmHg 13%
    20:00 +30°C° 0 mm 3 mps 746 mmHg 13%
    21:00 +29°C° 0 mm 3 mps 746 mmHg 14%
    22:00 +28°C° 0 mm 3 mps 746 mmHg 14%
    23:00 +27°C° 0 mm 3 mps 746 mmHg 15%

    Day after tomorrow, 14 December, Friday

    Time Temperature Precipitation Wind Pressure Humidity
    00:00 +27°C° 0 mm 3 mps 746 mmHg 15%
    01:00 +26°C° 0 mm 3 mps 746 mmHg 16%
    02:00 +25°C° 0 mm 3 mps 745 mmHg 16%
    03:00 +25°C° 0 mm 3 mps 745 mmHg 17%
    04:00 +24°C° 0 mm 3 mps 745 mmHg 17%
    05:00 +24°C° 0 mm 2 mps 746 mmHg 17%
    06:00 +23°C° 0 mm 2 mps 746 mmHg 18%
    07:00 +26°C° 0 mm 3 mps 747 mmHg 15%
    08:00 +29°C° 0 mm 4 mps 747 mmHg 13%
    09:00 +33°C° 0 mm 4 mps 748 mmHg 10%
    10:00 +35°C° 0 mm 4 mps 747 mmHg 10%
    11:00 +37°C° 0 mm 4 mps 746 mmHg 9%
    12:00 +40°C° 0 mm 4 mps 746 mmHg 8%
    13:00 +40°C° 0 mm 4 mps 745 mmHg 8%
    14:00 +41°C° 0 mm 4 mps 744 mmHg 8%
    15:00 +41°C° 0 mm 4 mps 744 mmHg 8%
    16:00 +38°C° 0 mm 3 mps 744 mmHg 10%
    17:00 +36°C° 0 mm 3 mps 744 mmHg 11%
    18:00 +34°C° 0 mm 3 mps 744 mmHg 12%
    19:00 +33°C° 0 mm 3 mps 745 mmHg 13%
    20:00 +30°C° 0 mm 3 mps 745 mmHg 14%
    21:00 +29°C° 0 mm 3 mps 746 mmHg 14%
    22:00 +29°C° 0 mm 3 mps 746 mmHg 14%
    23:00 +28°C° 0 mm 3 mps 745 mmHg 15%

    15 December, Saturday

    Time Temperature Precipitation Wind Pressure Humidity
    00:00 +27°C° 0 mm 3 mps 745 mmHg 15%
    01:00 +26°C° 0 mm 3 mps 745 mmHg 15%
    02:00 +26°C° 0 mm 3 mps 745 mmHg 15%
    03:00 +25°C° 0 mm 3 mps 745 mmHg 15%
    04:00 +24°C° 0 mm 3 mps 745 mmHg 16%
    05:00 +24°C° 0 mm 3 mps 745 mmHg 16%
    06:00 +22°C° 0 mm 3 mps 746 mmHg 17%
    07:00 +26°C° 0 mm 3 mps 746 mmHg 15%
    08:00 +29°C° 0 mm 4 mps 747 mmHg 12%
    09:00 +32°C° 0 mm 5 mps 748 mmHg 10%
    10:00 +34°C° 0 mm 5 mps 747 mmHg 9%
    11:00 +37°C° 0 mm 4 mps 746 mmHg 8%
    12:00 +40°C° 0 mm 4 mps 746 mmHg 7%
    13:00 +40°C° 0 mm 4 mps 745 mmHg 7%
    14:00 +40°C° 0 mm 3 mps 744 mmHg 8%
    15:00 +40°C° 0 mm 3 mps 743 mmHg 8%
    16:00 +38°C° 0 mm 3 mps 743 mmHg 9%
    17:00 +36°C° 0 mm 3 mps 744 mmHg 10%
    18:00 +33°C° 0 mm 3 mps 744 mmHg 11%
    19:00 +31°C° 0 mm 3 mps 745 mmHg 12%
    20:00 +30°C° 0 mm 3 mps 745 mmHg 12%
    21:00 +29°C° 0 mm 4 mps 746 mmHg 12%
    22:00 +28°C° 0 mm 4 mps 745 mmHg 12%
    23:00 +27°C° 0 mm 4 mps 745 mmHg 12%

    16 December, Sunday

    Time Temperature Precipitation Wind Pressure Humidity
    00:00 +26°C° 0 mm 3 mps 745 mmHg 12%
    01:00 +26°C° 0 mm 3 mps 745 mmHg 12%
    02:00 +25°C° 0 mm 3 mps 744 mmHg 12%
    03:00 +24°C° 0 mm 3 mps 744 mmHg 12%
    04:00 +24°C° 0 mm 3 mps 745 mmHg 12%
    05:00 +22°C° 0 mm 3 mps 745 mmHg 12%
    06:00 +22°C° 0 mm 3 mps 745 mmHg 12%
    07:00 +25°C° 0 mm 3 mps 746 mmHg 11%
    08:00 +28°C° 0 mm 4 mps 746 mmHg 10%
    09:00 +30°C° 0 mm 4 mps 747 mmHg 8%
    10:00 +34°C° 0 mm 4 mps 746 mmHg 8%
    11:00 +36°C° 0 mm 4 mps 745 mmHg 7%
    12:00 +38°C° 0 mm 4 mps 745 mmHg 7%
    13:00 +40°C° 0 mm 4 mps 744 mmHg 7%
    14:00 +39°C° 0 mm 3 mps 743 mmHg 7%
    15:00 +40°C° 0 mm 3 mps 743 mmHg 7%
    16:00 +37°C° 0 mm 3 mps 743 mmHg 9%
    17:00 +35°C° 0 mm 3 mps 743 mmHg 10%
    18:00 +32°C° 0 mm 2 mps 744 mmHg 11%
    19:00 +31°C° 0 mm 3 mps 744 mmHg 12%
    20:00 +30°C° 0 mm 3 mps 745 mmHg 12%
    21:00 +29°C° 0 mm 3 mps 745 mmHg 13%
    22:00 +28°C° 0 mm 3 mps 745 mmHg 14%
    23:00 +27°C° 0 mm 3 mps 745 mmHg 14%

    17 December, Monday

    Time Temperature Precipitation Wind Pressure Humidity
    00:00 +26°C° 0 mm 3 mps 745 mmHg 15%
    01:00 +26°C° 0 mm 3 mps 745 mmHg 15%
    02:00 +25°C° 0 mm 4 mps 745 mmHg 14%
    03:00 +23°C° 0 mm 4 mps 745 mmHg 14%
    04:00 +23°C° 0 mm 4 mps 745 mmHg 15%
    05:00 +22°C° 0 mm 4 mps 745 mmHg 15%
    06:00 +22°C° 0 mm 4 mps 746 mmHg 15%
    07:00 +25°C° 0 mm 5 mps 746 mmHg 14%
    08:00 +27°C° 0 mm 5 mps 747 mmHg 12%
    09:00 +29°C° 0 mm 6 mps 747 mmHg 11%
    10:00 +32°C° 0 mm 6 mps 746 mmHg 10%
    11:00 +34°C° 0 mm 5 mps 746 mmHg 9%
    12:00 +37°C° 0 mm 5 mps 745 mmHg 8%
    13:00 +37°C° 0 mm 5 mps 745 mmHg 8%
    14:00 +39°C° 0 mm 5 mps 744 mmHg 8%
    15:00 +38°C° 0 mm 4 mps 743 mmHg 8%
    16:00 +36°C° 0 mm 4 mps 744 mmHg 9%
    17:00 +34°C° 0 mm 4 mps 744 mmHg 10%
    18:00 +30°C° 0 mm 3 mps 744 mmHg 11%
    19:00 +29°C° 0 mm 4 mps 745 mmHg 12%
    20:00 +28°C° 0 mm 4 mps 745 mmHg 13%
    21:00 +27°C° 0 mm 4 mps 746 mmHg 14%
    22:00 +27°C° 0 mm 4 mps 746 mmHg 15%
    23:00 +26°C° 0 mm 4 mps 746 mmHg 16%
    Show more